TimeCDT,TemperatureF,Dew PointF,Humidity,Sea Level PressureIn,VisibilityMPH,Wind Direction,Wind SpeedMPH,Gust SpeedMPH,PrecipitationIn,Events,Conditions,WindDirDegrees,DateUTC
12:15 AM,69.8,62.6,78,30.03,10.0,NNW,21.9,28.8,N/A,,Scattered Clouds,330,2013-07-21 05:15:00
12:35 AM,68.0,57.2,68,30.03,10.0,NNW,20.7,28.8,N/A,,Overcast,330,2013-07-21 05:35:00
12:55 AM,66.2,57.2,73,30.03,10.0,NNW,20.7,26.5,N/A,,Mostly Cloudy,340,2013-07-21 05:55:00
1:15 AM,66.2,57.2,73,30.02,10.0,North,18.4,23.0,N/A,,Mostly Cloudy,350,2013-07-21 06:15:00
1:35 AM,68.0,55.4,64,30.01,10.0,NNW,16.1,20.7,N/A,,Scattered Clouds,330,2013-07-21 06:35:00
1:55 AM,66.2,57.2,73,30.01,10.0,NNW,13.8,-,N/A,,Scattered Clouds,330,2013-07-21 06:55:00
2:15 AM,66.2,57.2,73,29.97,10.0,NNW,15.0,-,N/A,,Mostly Cloudy,340,2013-07-21 07:15:00
2:35 AM,66.2,57.2,73,29.95,10.0,ENE,8.1,-,N/A,,Overcast,70,2013-07-21 07:35:00
2:55 AM,66.2,55.4,68,29.94,10.0,East,5.8,-,N/A,,Mostly Cloudy,80,2013-07-21 07:55:00
3:15 AM,64.4,57.2,77,29.88,10.0,NE,10.4,-,N/A,,Mostly Cloudy,50,2013-07-21 08:15:00
3:35 AM,68.0,57.2,68,29.85,10.0,SE,6.9,-,N/A,,Mostly Cloudy,140,2013-07-21 08:35:00
3:55 AM,64.4,57.2,77,29.84,10.0,ESE,4.6,-,N/A,,Partly Cloudy,120,2013-07-21 08:55:00
4:15 AM,62.6,57.2,82,29.85,10.0,South,8.1,-,N/A,,Clear,180,2013-07-21 09:15:00
4:35 AM,62.6,57.2,82,29.84,10.0,SSW,4.6,-,N/A,,Clear,200,2013-07-21 09:35:00
4:55 AM,62.6,57.2,82,29.88,10.0,Calm,Calm,-,N/A,,Clear,0,2013-07-21 09:55:00
5:15 AM,60.8,57.2,88,29.88,10.0,South,4.6,-,N/A,,Clear,180,2013-07-21 10:15:00
5:35 AM,60.8,55.4,82,29.89,10.0,SW,5.8,-,N/A,,Clear,220,2013-07-21 10:35:00
5:55 AM,62.6,57.2,82,29.92,10.0,North,15.0,-,N/A,,Clear,360,2013-07-21 10:55:00
6:15 AM,60.8,57.2,88,29.94,10.0,NNW,5.8,-,N/A,,Clear,330,2013-07-21 11:15:00
6:35 AM,62.6,57.2,82,29.96,10.0,NW,9.2,-,N/A,,Clear,310,2013-07-21 11:35:00
6:55 AM,62.6,57.2,82,29.98,10.0,WNW,6.9,-,N/A,,Partly Cloudy,300,2013-07-21 11:55:00
7:15 AM,62.6,57.2,82,29.98,10.0,NW,9.2,-,N/A,,Mostly Cloudy,310,2013-07-21 12:15:00
7:35 AM,62.6,57.2,82,29.98,10.0,WNW,8.1,-,N/A,,Scattered Clouds,300,2013-07-21 12:35:00
7:55 AM,64.4,57.2,77,29.96,10.0,WNW,5.8,-,N/A,,Clear,290,2013-07-21 12:55:00
8:15 AM,66.2,57.2,73,29.96,10.0,NNW,4.6,-,N/A,,Clear,330,2013-07-21 13:15:00
8:35 AM,69.8,59.0,68,29.96,10.0,NW,3.5,-,N/A,,Clear,320,2013-07-21 13:35:00
8:55 AM,71.6,60.8,69,29.97,10.0,NNW,5.8,-,N/A,,Clear,340,2013-07-21 13:55:00
9:15 AM,73.4,57.2,57,29.96,10.0,Calm,Calm,-,N/A,,Clear,0,2013-07-21 14:15:00
9:35 AM,75.2,57.2,53,29.95,10.0,SSW,3.5,-,N/A,,Clear,210,2013-07-21 14:35:00
9:55 AM,75.2,60.8,61,29.93,10.0,SSW,6.9,-,N/A,,Clear,200,2013-07-21 14:55:00
10:15 AM,77.0,57.2,50,29.92,10.0,SE,4.6,-,N/A,,Clear,140,2013-07-21 15:15:00
10:35 AM,78.8,57.2,47,29.93,10.0,Calm,Calm,-,N/A,,Clear,0,2013-07-21 15:35:00
10:55 AM,80.6,59.0,48,29.92,10.0,SSW,10.4,-,N/A,,Clear,200,2013-07-21 15:55:00
11:15 AM,80.6,60.8,51,29.89,10.0,South,15.0,-,N/A,,Clear,190,2013-07-21 16:15:00
11:35 AM,80.6,60.8,51,29.90,10.0,South,10.4,-,N/A,,Clear,190,2013-07-21 16:35:00
11:55 AM,82.4,57.2,42,29.90,10.0,SSW,11.5,-,N/A,,Clear,200,2013-07-21 16:55:00
12:15 PM,82.4,57.2,42,29.90,10.0,South,10.4,-,N/A,,Clear,190,2013-07-21 17:15:00
12:35 PM,84.2,59.0,42,29.91,10.0,SSW,8.1,-,N/A,,Clear,210,2013-07-21 17:35:00
12:55 PM,86.0,59.0,40,29.91,10.0,SSW,6.9,-,N/A,,Clear,210,2013-07-21 17:55:00
1:15 PM,84.2,57.2,40,29.90,10.0,South,6.9,-,N/A,,Clear,180,2013-07-21 18:15:00
1:35 PM,84.2,59.0,42,29.89,10.0,SSW,8.1,-,N/A,,Clear,200,2013-07-21 18:35:00
1:55 PM,86.0,57.2,37,29.88,10.0,South,4.6,-,N/A,,Clear,180,2013-07-21 18:55:00
2:15 PM,87.8,57.2,35,29.86,10.0,South,10.4,-,N/A,,Clear,170,2013-07-21 19:15:00
2:35 PM,87.8,59.0,38,29.85,10.0,SSE,11.5,16.1,N/A,,Clear,160,2013-07-21 19:35:00
2:55 PM,87.8,60.8,40,29.86,10.0,South,10.4,-,N/A,,Clear,180,2013-07-21 19:55:00
3:15 PM,87.8,60.8,40,29.85,10.0,SSW,9.2,-,N/A,,Clear,200,2013-07-21 20:15:00
3:35 PM,89.6,60.8,38,29.85,10.0,SSW,9.2,-,N/A,,Clear,200,2013-07-21 20:35:00
3:55 PM,89.6,60.8,38,29.85,10.0,SSW,6.9,-,N/A,,Clear,210,2013-07-21 20:55:00
4:15 PM,89.6,60.8,38,29.84,10.0,WSW,4.6,-,N/A,,Clear,240,2013-07-21 21:15:00
4:35 PM,89.6,60.8,38,29.84,10.0,SSE,5.8,-,N/A,,Clear,160,2013-07-21 21:35:00
4:55 PM,89.6,60.8,38,29.84,10.0,South,5.8,-,N/A,,Clear,180,2013-07-21 21:55:00
5:15 PM,89.6,60.8,38,29.84,10.0,South,8.1,-,N/A,,Clear,190,2013-07-21 22:15:00
5:35 PM,89.6,57.2,33,29.84,10.0,SSE,8.1,-,N/A,,Clear,160,2013-07-21 22:35:00
5:55 PM,89.6,60.8,38,29.83,10.0,South,5.8,-,N/A,,Clear,170,2013-07-21 22:55:00
6:15 PM,89.6,60.8,38,29.83,10.0,SSE,6.9,-,N/A,,Clear,150,2013-07-21 23:15:00
6:35 PM,89.6,60.8,38,29.83,10.0,SE,8.1,-,N/A,,Clear,140,2013-07-21 23:35:00
6:55 PM,89.6,60.8,38,29.83,10.0,SE,5.8,-,N/A,,Clear,140,2013-07-21 23:55:00
7:15 PM,89.6,62.6,40,29.83,10.0,SE,5.8,-,N/A,,Clear,130,2013-07-22 00:15:00
7:35 PM,87.8,64.4,46,29.83,10.0,SE,5.8,-,N/A,,Clear,140,2013-07-22 00:35:00
7:55 PM,86.0,66.2,51,29.83,10.0,SSE,5.8,-,N/A,,Clear,150,2013-07-22 00:55:00
8:15 PM,84.2,66.2,55,29.83,10.0,SSE,5.8,-,N/A,,Clear,150,2013-07-22 01:15:00
8:35 PM,82.4,66.2,58,29.83,10.0,SE,8.1,-,N/A,,Clear,130,2013-07-22 01:35:00
8:55 PM,80.6,64.4,58,29.83,10.0,SE,6.9,-,N/A,,Clear,140,2013-07-22 01:55:00
9:15 PM,78.8,64.4,61,29.83,10.0,SSE,6.9,-,N/A,,Clear,160,2013-07-22 02:15:00
9:35 PM,78.8,64.4,61,29.84,10.0,SSE,9.2,-,N/A,,Clear,160,2013-07-22 02:35:00
9:55 PM,77.0,64.4,65,29.84,10.0,SSE,10.4,-,N/A,,Clear,160,2013-07-22 02:55:00
10:15 PM,77.0,64.4,65,29.85,10.0,SSE,9.2,-,N/A,,Clear,160,2013-07-22 03:15:00
10:35 PM,75.2,64.4,69,29.86,10.0,SSE,10.4,-,N/A,,Clear,160,2013-07-22 03:35:00
10:55 PM,75.2,66.2,73,29.86,10.0,SSE,11.5,-,N/A,,Clear,160,2013-07-22 03:55:00
11:15 PM,73.4,66.2,78,29.86,10.0,South,9.2,-,N/A,,Clear,170,2013-07-22 04:15:00
11:35 PM,73.4,66.2,78,29.87,10.0,SSE,9.2,-,N/A,,Clear,160,2013-07-22 04:35:00
11:55 PM,73.4,66.2,78,29.86,10.0,SSE,10.4,-,N/A,,Clear,150,2013-07-22 04:55:00